User: anonymous   Login
Location: Caltech
(34.1382°N, 118.1253°W)
Time: 19:52:43
(UTC-08:00)
Language:

OAO 1 Rocket - Orbit

View from above orbital plane
View from above orbital plane
View from above satellite
View from above satellite

Ground track
Ground track

The orbit data is extracted from the following two-line orbital elements,

1 02144U 66031B   17054.18051054  .00000071  00000-0  26852-4 0  9993
2 02144  35.0424 112.6374 0008881 322.8616  37.1460 14.42603327671634
Epoch (UTC): 23 February 2017 04:19:56
Eccentricity: 0.0008881
inclination: 35.0424°
perigee height: 743 km
apogee height: 756 km
right ascension of ascending node: 112.6374°
argument of perigee: 322.8616°
revolutions per day: 14.42603327
mean anomaly at epoch: 37.1460°
orbit number at epoch: 67163

The dashed part of the orbit path shows where the satellite is in the earth's shadow,  

DLR